Flag for Guatemala Weather past 2 weeks in Guatemala, Guatemala

Now
77 °F

Scattered clouds.


Feels Like: 79 °F
Forecast: 60 / 78 °F
Wind: 14 mph from North

Location: Guatemala Aeropuertola Aurora

Current Time: Jul 24, 2014 at 2:45:52 PM

Latest Report: Jul 24, 2014 at 2:00 PM


Visibility: N/A

Pressure: 30.24 "Hg

Humidity: 54%

Dew point: 59 °F

Location of GuatemalaLocation

Historic Weather in Guatemala — Graph

°F

Guatemala temperature yesterday

Maximum temperature yesterday: 77 °F (at 12:00 PM)
Minimum temperature yesterday: 63 °F (at 3:00 AM)
Average temperature yesterday: 70 °F

Past Weeks' High & Low Weather Summary

 TemperatureHumidityPressure
High82 °F (Jul 17, 2:00 PM)100% (Jul 11, 5:00 AM)30.36 "Hg (Jul 11, 5:00 AM)
Low61 °F (Jul 11, 5:00 AM)34% (Jul 9, 2:00 PM)30.18 "Hg (Jul 15, 6:00 PM)
Average69 °F77%30.29 "Hg
* Reported Jul 9 2:00 PM — Jul 24 2:00 PM, Guatemala, Weather by CustomWeather, © 2014

Note: Actual official high and low records may vary slightly from our data, if they occured in-between our weather recording intervals... More about our weather records

Advertising

Guatemala weather history for previous 24 hours

 ConditionsComfort  
Time TempWeatherWind HumidityBarometerVisibility
2:00 PM
Jul 24
77 °FScattered clouds.14 mph54%30.24 "HgN/A
1:00 PM79 °FScattered clouds.21 mph48%30.27 "HgN/A
12:00 PM77 °FScattered clouds.21 mph51%30.30 "HgN/A
11:00 AM75 °FScattered clouds.21 mph57%30.30 "HgN/A
10:00 AM73 °FScattered clouds.21 mph61%30.30 "HgN/A
9:00 AM70 °FScattered clouds.18 mph69%30.27 "HgN/A
8:00 AM66 °FScattered clouds.16 mph78%30.27 "HgN/A
7:00 AM64 °FBroken clouds.18 mph83%30.27 "HgN/A
6:00 AM64 °FBroken clouds.14 mph83%30.27 "HgN/A
5:00 AM63 °FPassing clouds.14 mph88%30.27 "HgN/A
4:00 AM63 °FPassing clouds.16 mph94%30.24 "HgN/A
3:00 AM64 °FPassing clouds.14 mph88%30.24 "HgN/A
2:00 AM64 °FPassing clouds.12 mph88%30.27 "HgN/A
1:00 AM64 °FPassing clouds.14 mph88%30.27 "HgN/A
12:00 AM64 °FPassing clouds.16 mph88%30.30 "HgN/A
11:00 PM
Jul 23
66 °FPassing clouds.14 mph83%30.33 "HgN/A
10:00 PM66 °FPassing clouds.14 mph78%30.30 "HgN/A
9:00 PM66 °FPassing clouds.16 mph83%30.30 "HgN/A
7:00 PM70 °FPassing clouds.16 mph64%30.27 "HgN/A
6:00 PM73 °FScattered clouds.14 mph57%30.24 "HgN/A
5:00 PM75 °FScattered clouds.21 mph57%30.21 "HgN/A
4:00 PM77 °FScattered clouds.18 mph54%30.21 "HgN/A
3:00 PM77 °FScattered clouds.18 mph47%30.24 "HgN/A
2:00 PM77 °FScattered clouds.23 mph51%30.24 "HgN/A
Weather by CustomWeather, © 2014

See weather overviewHow to use our weather pages